Regional Weather Roundup
Issued by NWS Charleston, SC

Current Version | Previous Version | Graphics & Text | Print | Product List | Glossary Off
Versions: 1 2 3 4 5 6 7 8 9 10 11 12 13 14 15 16 17 18 19 20 21 22 23 24 25 26 27 28 29 30 31 32 33 34 35 36 37 38 39 40 41 42 43 44 45 46 47 48 49 50

000
ASUS42 KCHS 280728
RWRCHS

REGIONAL WEATHER ROUNDUP
NATIONAL WEATHER SERVICE CHARLESTON SC
300 AM EDT WED SEP 28 2016

NOTE: "FAIR" INDICATES FEW OR NO CLOUDS BELOW 12,000 FEET WITH NO
SIGNIFICANT WEATHER AND/OR OBSTRUCTIONS TO VISIBILITY.

NOT ALL STATIONS ARE QUALITY CONTROLLED. USE DATA WITH CAUTION...
ESPECIALLY DEWPOINT OBSERVATIONS.

SCZ027-030-031-034>040-042>050-280800-
...SOUTHEAST SOUTH CAROLINA...

CITY           SKY/WX    TMP DP  RH WIND       PRES   REMARKS
N CHARLESTON   CLEAR     74  70  87 CALM      29.92S
WATERFRONT PRK   N/A     76  73  90 CALM      29.91R
MOUNT PLEASANT FAIR      70  70 100 CALM      29.92F
JOHNS ISLAND   FAIR      72  72 100 CALM      29.92S
PINOPOLIS        N/A     75  72  88 SW5       29.85R
MONCKS CORNER  FAIR      68  66  94 CALM      29.93S
SUMMERVILLE    FAIR      70  70 100 CALM      29.93S
BEAUFORT MCAS  CLEAR     73  71  93 SW5       29.92F
BEAUFORT ARPT  FAIR      72  72 100 CALM      29.92S
HILTON HEAD IS CLEAR     72  72 100 CALM      29.93S
WALTERBORO     SUNNY     72  72 100 CALM      29.93S
ALLENDALE      FAIR      72  70  94 CALM      29.91F

...SOUTHERN MIDLANDS AND PEE DEE...

CITY           SKY/WX    TMP DP  RH WIND       PRES   REMARKS
GEORGETOWN     FAIR      68  66  94 CALM      29.93F
KINGSTREE      FAIR      68  64  88 CALM      29.92F
ORANGEBURG     MOCLDY    72  71  97 NW3       29.93R
BARNWELL       NOT AVBL
AIKEN          FAIR      68  63  83 CALM      29.97R
MANNING        FAIR      70  68  94 CALM      29.93S
COLUMBIA       MOCLDY    73  68  84 SW3       29.91S
SUMTER         CLEAR     71  69  92 S3        29.90S
FLORENCE       CLEAR     73  69  87 SW7       29.92S
MYRTLE BEACH   CLEAR     73  63  68 SW3       29.93F
N MYRTLE BEACH CLEAR     71  69  93 CALM      29.92S

$$

GAZ063-065-086>088-099>101-113>116-118-119-134>141-150-280800-
...SOUTHEAST GEORGIA...

CITY           SKY/WX    TMP DP  RH WIND       PRES   REMARKS
SAVANNAH ARPT  CLEAR     72  70  93 CALM      29.93S
HUNTER AAF     CLEAR     72  72 100 SW3       29.90S
FORT STEWART   CLEAR     72  69  91 CALM      29.91R
STATESBORO     CLEAR     71  70  99 CALM      29.92F
SYLVANIA       NOT AVBL
CLAXTON        FAIR      69  69 100 CALM      29.92F

...CSRA...CENTRAL AND FAR SOUTHEAST GEORGIA...

CITY           SKY/WX    TMP DP  RH WIND       PRES   REMARKS
THOMSON        CLOUDY    72  71  96 CALM      29.96F
AUGUSTA-BUSH   PTCLDY    71  68  90 CALM      29.91S
AUGUSTA-DANIEL CLOUDY    73  64  73 NE3       29.93S
SWAINSBORO     FAIR      72  68  88 CALM      29.93S
VIDALIA        CLEAR     72  70  94 CALM      29.93F
EASTMAN        FAIR      73  69  89 CALM      29.94F
HAZLEHURST     FAIR      73  71  95 CALM      29.91F
ALMA           CLEAR     68  68 100 CALM      29.93S
WAYCROSS       CLEAR     72  72 100 CALM      29.93F
JESUP          FAIR      70  70 100 CALM      29.93F FOG
BAXLEY         FAIR      70  70 100 CALM      29.93S
BRUNSWICK      CLEAR     73  73 100 CALM      29.93F
SAINT SIMONS   CLEAR     76  73  91 SW5       29.93S

$$

SCZ027-028-034-036>038-045-046-048>050-GAZ119-141-280800-
...LAKE AND SUPPLEMENTAL COASTAL OBSERVATIONS...

STATION/POSITION TIME  TEMP    WIND        PRES    WAVE   SWELL
                       AIR SEA DIR/SP/G            HT/PER HT/PER/DIR
                 (UTC) (F)     (DEG/KT/KT) (MB)    (FT/S) (FT/S/D)
WINYAH BAY       0645   71     300/  2     1013.0S
LAKE MURRAY      0650   71     310/  2/  4 1012.5R
ACE BASIN NERRS  0645   72        CALM     1013.0F
FORT PULASKI     0700   76 81  220/  2/  2 1013.7
SAPELO ISLAND    0645   77     230/  5     1013.0S

$$

ANZ835-935-AMZ111-154-330-350-352-354-370-450-454-472-280800-
...C-MAN AND BUOY OBSERVATIONS...

STATION/POSITION TIME  TEMP    WIND        PRES    WAVE   SWELL
                       AIR SEA DIR/SP/G            HT/PER HT/PER/DIR
                 (UTC) (F)     (DEG/KT/KT) (MB)    (FT/S) (FT/S/D)
BUOY 41004       0650   80 82  290/  2/  4 1012.9R   3/11   3/110/11
BUOY 41008       0650   81 82  200/  6/  8 1013.1F   2/12   2/ 60/12
FOLLY BEACH CMAN 0700   79     200/  6/  7 1013.3F
CAPERS NEARSHORE 0608   79 81  210/  6/  8 1013.1S
FRIPP NEARSHORE  0608   79 81  200/  8/ 10 1013.3S


STATION/POSITION TIME  TEMP    WIND        PRES    WAVE   SWELL
                       AIR SEA DIR/SP/G            HT/PER HT/PER/DIR
                 (UTC) (F)     (DEG/KT/KT) (MB)    (FT/S) (FT/S/D)
5E ST. MARYS GA  0601      82                N/A     2/12   2/100/12
FRYING PAN BUOY  0710   79 82  220/  4/  4 1013.0
BUOY 41025       0650   78 83   10/ 10/ 12 1011.9R   5/ 7   5/110/ 7
CAPE LOOKOUT NC  0700   74     340/  5/  6 1013.0R
BUOY 41002       0650   82 83  240/ 12/ 16 1012.9S   5/ 7   3/ 90/ 7
BUOY 41010       NOT AVBL
ST AUGUSTINE FL  0700   74 84  240/  3/  4 1014.5F


$$



USA.gov is the U.S. government's official web portal to all federal, state and local government web resources and services.